| time (UTC) | temp F | wind direction | speed MPH | gust MPH | rain 1hr in | rain 24hr in | rain mn in | humidity % | barometer mb |
| 20260901150036 | 70 | 146 | 2.0 | 7.0 | 0.00 | 0.00 | 0.00 | 56 | 1014.2 |
| 20260901144536 | 68 | 146 | 2.0 | 6.0 | 0.00 | 0.00 | 0.00 | 57 | 1014.2 |
| 20260901143024 | 67 | 180 | 1.0 | 6.0 | 0.00 | 0.00 | 0.00 | 59 | 1014.2 |
| 20260901141529 | 67 | 173 | 2.0 | 6.0 | 0.00 | 0.00 | 0.00 | 59 | 1014.1 |
| 20260901140028 | 65 | 352 | 0.0 | 4.0 | 0.00 | 0.00 | 0.00 | 61 | 1014.0 |
| 20260901134527 | 64 | 175 | 0.0 | 3.0 | 0.00 | 0.00 | 0.00 | 62 | 1014.1 |
| 20260901133029 | 61 | 176 | 0.0 | 2.0 | 0.00 | 0.00 | 0.00 | 65 | 1014.0 |
| 20260901131527 | 58 | 176 | 0.0 | 3.0 | 0.00 | 0.00 | 0.00 | 70 | 1013.8 |
| 20260901130031 | 56 | 171 | 0.0 | 2.0 | 0.00 | 0.00 | 0.00 | 72 | 1013.8 |
| 20260901124530 | 55 | 170 | 1.0 | 2.0 | 0.00 | 0.00 | 0.00 | 73 | 1013.8 |
| 20260901123032 | 54 | 168 | 0.0 | 2.0 | 0.00 | 0.00 | 0.00 | 72 | 1013.9 |
| 20260901121529 | 54 | 168 | 0.0 | 6.0 | 0.00 | 0.00 | 0.00 | 73 | 1013.8 |
| 20260901120030 | 53 | 161 | 0.0 | 2.0 | 0.00 | 0.00 | 0.00 | 73 | 1013.8 |
| 20260901114536 | 53 | 162 | 0.0 | 0.0 | 0.00 | 0.00 | 0.00 | 71 | 1013.6 |
| 20260901113032 | 53 | 360 | 0.0 | 0.0 | 0.00 | 0.00 | 0.00 | 71 | 1013.4 |
| 20260901111530 | 53 | 162 | 0.0 | 0.0 | 0.00 | 0.00 | 0.00 | 70 | 1013.2 |
| 20260901110031 | 53 | 162 | 0.0 | 0.0 | 0.00 | 0.00 | 0.00 | 70 | 1013.2 |
| 20260901104532 | 54 | 162 | 0.0 | 0.0 | 0.00 | 0.00 | 0.00 | 70 | 1013.1 |
| 20260901103010 | 54 | 360 | 0.0 | 0.0 | 0.00 | 0.00 | 0.00 | 69 | 1012.9 |
| 20260901101513 | 54 | 162 | 0.0 | 0.0 | 0.00 | 0.00 | 0.00 | 69 | 1012.8 |
| 20260901100024 | 54 | 162 | 0.0 | 0.0 | 0.00 | 0.00 | 0.00 | 68 | 1012.8 |
| 20260901094537 | 54 | 162 | 0.0 | 0.0 | 0.00 | 0.00 | 0.00 | 68 | 1012.9 |
| 20260901093033 | 54 | 163 | 0.0 | 0.0 | 0.00 | 0.00 | 0.00 | 68 | 1012.8 |
| 20260901091516 | 54 | 360 | 0.0 | 0.0 | 0.00 | 0.00 | 0.00 | 68 | 1012.7 |
| 20260901090022 | 55 | 360 | 0.0 | 0.0 | 0.00 | 0.00 | 0.00 | 67 | 1012.8 |
| 20260901084525 | 55 | 360 | 0.0 | 0.0 | 0.00 | 0.00 | 0.00 | 68 | 1012.8 |
| 20260901083030 | 56 | 161 | 0.0 | 0.0 | 0.00 | 0.00 | 0.00 | 67 | 1012.7 |
| 20260901081533 | 56 | 161 | 0.0 | 0.0 | 0.00 | 0.00 | 0.00 | 67 | 1012.7 |
| 20260901080018 | 56 | 161 | 0.0 | 0.0 | 0.00 | 0.00 | 0.00 | 66 | 1012.7 |
| 20260901074520 | 57 | 161 | 0.0 | 0.0 | 0.00 | 0.01 | 0.00 | 66 | 1012.8 |
| 20260901073029 | 57 | 161 | 0.0 | 0.0 | 0.00 | 0.11 | 0.00 | 65 | 1012.8 |
| 20260901071532 | 57 | 161 | 0.0 | 0.0 | 0.00 | 0.17 | 0.00 | 65 | 1012.8 |
| 20260901070031 | 57 | 161 | 0.0 | 0.0 | 0.00 | 0.18 | 0.00 | 65 | 1012.7 |
| 20260901064521 | 58 | 161 | 0.0 | 0.0 | 0.00 | 0.18 | 0.00 | 64 | 1012.7 |
| 20260901063027 | 58 | 161 | 0.0 | 0.0 | 0.00 | 0.18 | 0.00 | 62 | 1012.6 |
| 20260901061502 | 58 | 161 | 0.0 | 1.0 | 0.00 | 0.18 | 0.00 | 62 | 1012.6 |
| 20260901060006 | 59 | 161 | 0.0 | 2.0 | 0.00 | 0.18 | 0.00 | 62 | 1012.3 |
| 20260901054510 | 59 | 161 | 0.0 | 2.0 | 0.00 | 0.18 | 0.00 | 62 | 1012.2 |
| 20260901053020 | 59 | 161 | 1.0 | 5.0 | 0.00 | 0.21 | 0.00 | 62 | 1012.0 |
| 20260901051502 | 60 | 163 | 0.0 | 4.0 | 0.00 | 0.24 | 0.00 | 63 | 1012.0 |
| 20260901050007 | 61 | 163 | 0.0 | 4.0 | 0.00 | 0.24 | 0.00 | 61 | 1011.9 |
| 20260901044513 | 62 | 163 | 0.0 | 2.0 | 0.00 | 0.24 | 0.24 | 58 | 1011.4 |
| 20260901043016 | 62 | 163 | 1.0 | 5.0 | 0.00 | 0.24 | 0.24 | 56 | 1011.4 |
| 20260901041527 | 62 | 164 | 0.0 | 5.0 | 0.00 | 0.24 | 0.24 | 56 | 1011.3 |
| 20260901040002 | 63 | 164 | 0.0 | 4.0 | 0.00 | 0.24 | 0.24 | 55 | 1011.4 |
| 20260901034506 | 63 | 165 | 1.0 | 4.0 | 0.00 | 0.24 | 0.24 | 56 | 1011.2 |
| 20260901033036 | 62 | 165 | 0.0 | 2.0 | 0.00 | 0.24 | 0.24 | 57 | 1011.3 |
| 20260901031517 | 63 | 165 | 0.0 | 2.0 | 0.00 | 0.24 | 0.24 | 56 | 1011.4 |
| 20260901030034 | 64 | 165 | 0.0 | 2.0 | 0.00 | 0.24 | 0.24 | 55 | 1011.3 |
| 20260901024503 | 64 | 165 | 0.0 | 2.0 | 0.00 | 0.24 | 0.24 | 55 | 1011.3 |
| 20260901023009 | 63 | 165 | 0.0 | 1.0 | 0.00 | 0.24 | 0.24 | 55 | 1011.3 |
| 20260901021517 | 64 | 165 | 0.0 | 0.0 | 0.00 | 0.24 | 0.24 | 55 | 1011.2 |
| 20260901020019 | 65 | 165 | 0.0 | 0.0 | 0.00 | 0.24 | 0.24 | 53 | 1011.1 |
| 20260901014526 | 66 | 165 | 0.0 | 0.0 | 0.00 | 0.24 | 0.24 | 53 | 1010.9 |
| 20260901013008 | 66 | 165 | 0.0 | 0.0 | 0.00 | 0.24 | 0.24 | 52 | 1010.8 |
| 20260901011510 | 67 | 165 | 0.0 | 0.0 | 0.00 | 0.24 | 0.24 | 51 | 1010.7 |
| 20260901010019 | 69 | 165 | 0.0 | 0.0 | 0.00 | 0.24 | 0.24 | 50 | 1010.7 |
| 20260901004523 | 70 | 165 | 0.0 | 0.0 | 0.00 | 0.24 | 0.24 | 50 | 1010.7 |
| 20260901003038 | 72 | 165 | 0.0 | 2.0 | 0.00 | 0.24 | 0.24 | 49 | 1010.6 |
| 20260901001506 | 73 | 165 | 0.0 | 5.0 | 0.00 | 0.24 | 0.24 | 47 | 1010.5 |
| 20260901000028 | 75 | 165 | 0.0 | 5.0 | 0.00 | 0.24 | 0.24 | 45 | 1010.4 |
| 20260831234515 | 75 | 163 | 3.0 | 6.0 | 0.00 | 0.24 | 0.24 | 42 | 1010.4 |
| 20260831233025 | 76 | 152 | 3.0 | 9.0 | 0.00 | 0.24 | 0.24 | 39 | 1010.5 |
| 20260831231529 | 76 | 190 | 1.0 | 10.0 | 0.00 | 0.24 | 0.24 | 39 | 1010.5 |
| 20260831230015 | 77 | 170 | 2.0 | 10.0 | 0.00 | 0.24 | 0.24 | 38 | 1010.5 |
| 20260831224516 | 78 | 195 | 2.0 | 8.0 | 0.00 | 0.24 | 0.24 | 35 | 1010.5 |
| 20260831223021 | 78 | 157 | 4.0 | 11.0 | 0.00 | 0.24 | 0.24 | 34 | 1010.7 |
| 20260831221524 | 79 | 178 | 3.0 | 8.0 | 0.00 | 0.24 | 0.24 | 33 | 1010.7 |
| 20260831220031 | 79 | 123 | 4.0 | 10.0 | 0.00 | 0.24 | 0.24 | 33 | 1010.7 |
| 20260831214512 | 79 | 201 | 3.0 | 11.0 | 0.00 | 0.24 | 0.24 | 33 | 1010.8 |
| 20260831213016 | 79 | 163 | 3.0 | 7.0 | 0.00 | 0.24 | 0.24 | 34 | 1010.8 |
| 20260831211535 | 80 | 165 | 1.0 | 8.0 | 0.00 | 0.24 | 0.24 | 32 | 1010.9 |
| 20260831210030 | 80 | 164 | 2.0 | 8.0 | 0.00 | 0.24 | 0.24 | 34 | 1010.9 |
| 20260831204530 | 79 | 137 | 3.0 | 9.0 | 0.00 | 0.24 | 0.24 | 34 | 1011.2 |
| 20260831203012 | 80 | 279 | 1.0 | 8.0 | 0.00 | 0.24 | 0.24 | 34 | 1011.3 |
| 20260831201523 | 80 | 159 | 2.0 | 9.0 | 0.00 | 0.24 | 0.24 | 34 | 1011.4 |
| 20260831200028 | 79 | 161 | 3.0 | 11.0 | 0.00 | 0.24 | 0.24 | 36 | 1011.5 |
| 20260831194503 | 79 | 126 | 1.0 | 9.0 | 0.00 | 0.24 | 0.24 | 37 | 1011.4 |
| 20260831193012 | 79 | 123 | 4.0 | 9.0 | 0.00 | 0.24 | 0.24 | 39 | 1011.6 |
| 20260831191518 | 79 | 172 | 0.0 | 9.0 | 0.00 | 0.24 | 0.24 | 39 | 1011.7 |
| 20260831190022 | 78 | 46 | 1.0 | 6.0 | 0.00 | 0.24 | 0.24 | 41 | 1011.8 |
| 20260831184530 | 78 | 190 | 3.0 | 8.0 | 0.00 | 0.24 | 0.24 | 45 | 1012.0 |
| 20260831183008 | 78 | 336 | 1.0 | 4.0 | 0.00 | 0.24 | 0.24 | 46 | 1011.9 |
| 20260831181512 | 77 | 272 | 1.0 | 5.0 | 0.00 | 0.24 | 0.24 | 47 | 1011.8 |
| 20260831180016 | 77 | 318 | 1.0 | 10.0 | 0.00 | 0.24 | 0.24 | 50 | 1012.1 |
| 20260831174524 | 75 | 277 | 2.0 | 9.0 | 0.00 | 0.24 | 0.24 | 51 | 1012.3 |
| 20260831173029 | 76 | 226 | 2.0 | 10.0 | 0.00 | 0.24 | 0.24 | 54 | 1012.4 |
| 20260831171509 | 74 | 188 | 3.0 | 10.0 | 0.00 | 0.24 | 0.24 | 57 | 1012.2 |
| 20260831170016 | 74 | 164 | 1.0 | 7.0 | 0.00 | 0.24 | 0.24 | 61 | 1012.3 |
| 20260831164524 | 74 | 348 | 1.0 | 14.0 | 0.00 | 0.24 | 0.24 | 61 | 1012.3 |
| 20260831163027 | 74 | 168 | 2.0 | 7.0 | 0.00 | 0.24 | 0.24 | 65 | 1012.2 |
| 20260831161534 | 73 | 51 | 2.0 | 6.0 | 0.00 | 0.24 | 0.24 | 64 | 1012.1 |
| 20260831160011 | 73 | 153 | 2.0 | 5.0 | 0.00 | 0.24 | 0.24 | 68 | 1011.8 |
| 20260831154545 | 72 | 182 | 1.0 | 6.0 | 0.00 | 0.24 | 0.24 | 69 | 1011.7 |
| 20260831153025 | 71 | 159 | 1.0 | 6.0 | 0.00 | 0.24 | 0.24 | 70 | 1011.6 |
| 20260831151532 | 71 | 69 | 1.0 | 4.0 | 0.00 | 0.24 | 0.24 | 71 | 1011.4 |